Location: Cluj-Napoca
(46.7712°N, 23.6236°E)
Time: 17:04:24
(UTC+02:00)

First-Move - Pass Details

Date: 29 November 2021
Orbit: 574 x 665 km, 97.6° (Epoch: 24 January)

Event Time Altitude Azimuth Distance (km) Brightness Sun altitude
Rises 05:56:52 0° 3° (N) 2,979 ? -18.3°
Reaches altitude 10° 05:59:19 10° 352° (N) 2,075 ? -17.9°
Enters shadow 06:01:23 21° 330° (NNW) 1,461 ? -17.6°
